Location: Andershausen
(51.8462°N, 9.8595°E)
Time: 01:53:43
(UTC+00:00)

Cosmos 2058 - Pass Details

Date: 18 November 2025
Orbit: 529 x 540 km, 82.5° (Epoch: 15 December)

Event Time Altitude Azimuth Distance (km) Brightness Sun altitude
Rises 17:28:38 0° 346° (NNW) 2,707 6.4 -18.6°
Reaches altitude 10° 17:30:48 10° 342° (NNW) 1,812 5.6 -18.9°
Maximum altitude 17:34:43 58° 264° (W) 636 3.4 -19.5°
Drops below altitude 10° 17:38:37 10° 185° (S) 1,802 5.6 -20.1°
Sets 17:40:47 0° 181° (S) 2,690 6.4 -20.5°
